Cortez, CO

4:33 AM MDT on September 26, 2016 (GMT -0600)
Cortez Municipal

Weather History for KCEZ - December, 2013

Change the Weather History Date:

Friday, December 6, 2013

  Actual Average Record
Temperature  
Mean Temperature 17 °F 30 °F  
Max Temperature 26 °F 43 °F 56 °F (2012)
Min Temperature 7 °F 16 °F -2 °F (2011)
Degree Days  
Heating Degree Days 48 35  
Month to date heating degree days 237 207  
Since 1 July heating degree days 1709 1732  
Cooling Degree Days 0 0  
Month to date cooling degree days 0 0  
Year to date cooling degree days 667 426  
Moisture  
Dew Point 8 °F    
Average Humidity 67    
Maximum Humidity 92    
Minimum Humidity 42    
Precipitation  
Precipitation 0.00 in 0.03 in 0.08 in (1996)
Month to date precipitation T 0.15  
Year to date precipitation 13.32 12.88  
Sea Level Pressure  
Sea Level Pressure 30.16 in    
Wind  
Wind Speed 4 mph (SE)    
Max Wind Speed 14 mph    
Max Gust Speed 16 mph    
Visibility 10 miles    
Events      
T = Trace of Precipitation, MM = Missing Value Source: NWS Daily Summary

Daily Weather History Graph

Daily Weather History Graph

Search for Another Location

Airport or City:

Trip Planner

Search our weather history database for the weather conditions in past years. The results will help you decide how hot, cold, wet, or windy it might be!

Date:

Astronomy

Dec. 06, 2013 Rise Set
Actual Time 7:14 AM MST 4:56 PM MST
Civil Twilight 6:45 AM MST 5:25 PM MST
Nautical Twilight 6:13 AM MST 5:58 PM MST
Astronomical Twilight 5:41 AM MST 6:29 PM MST
Moon 10:25 AM MST (12/6) 9:28 PM MST (12/6)
Length of Visible Light 10h 39m
Length of Day
9h 41m
Waxing Crescent, 20% of the Moon is Illuminated
Dec 6
Waxing Crescent
Dec 9
First Quarter
Dec 17
Full
Dec 25
Last Quarter
Jan 1
New

Hourly Weather History & Observations

Time (MST) Temp. Windchill Dew Point Humidity Pressure Visibility Wind Dir Wind Speed Gust Speed Precip Events Conditions
12:53 AM 12.9 °F 6.9 °F 10.0 °F 88% 30.03 in 10.0 mi East 3.5 mph - N/A   Overcast
1:53 AM 12.9 °F - 10.0 °F 88% 30.03 in 10.0 mi Calm Calm - N/A   Overcast
2:53 AM 12.9 °F - 10.0 °F 88% 30.05 in 10.0 mi Calm Calm - N/A   Overcast
3:53 AM 12.9 °F 3.8 °F 10.0 °F 88% 30.06 in 10.0 mi ENE 5.8 mph - N/A   Overcast
4:53 AM 12.9 °F 6.9 °F 10.0 °F 88% 30.09 in 10.0 mi Variable 3.5 mph - N/A   Overcast
5:53 AM 10.9 °F - 8.1 °F 88% 30.11 in 10.0 mi Calm Calm - N/A   Mostly Cloudy
6:53 AM 8.1 °F - 5.0 °F 87% 30.16 in 10.0 mi Calm Calm - N/A   Mostly Cloudy
7:53 AM 9.0 °F 0.6 °F 5.0 °F 84% 30.18 in 10.0 mi NE 4.6 mph - N/A   Partly Cloudy
8:53 AM 14.0 °F 8.2 °F 7.0 °F 74% 30.18 in 10.0 mi ENE 3.5 mph - N/A   Clear
9:53 AM 19.0 °F 13.9 °F 9.0 °F 65% 30.19 in 10.0 mi ENE 3.5 mph - N/A   Clear
10:53 AM 21.9 °F 17.2 °F 10.0 °F 60% 30.19 in 10.0 mi West 3.5 mph - N/A   Clear
11:53 AM 24.1 °F 15.2 °F 12.9 °F 62% 30.18 in 10.0 mi WSW 8.1 mph - N/A   Overcast
12:53 PM 25.0 °F 14.2 °F 12.0 °F 58% 30.17 in 10.0 mi SW 11.5 mph - N/A   Scattered Clouds
1:53 PM 26.1 °F 15.0 °F 7.0 °F 44% 30.15 in 10.0 mi SW 12.7 mph - N/A   Clear
2:53 PM 26.1 °F 18.4 °F 10.0 °F 51% 30.15 in 10.0 mi SW 6.9 mph - N/A   Clear
3:53 PM 25.0 °F 18.1 °F 8.1 °F 49% 30.16 in 10.0 mi SSW 5.8 mph - N/A   Clear
4:53 PM 23.0 °F 15.8 °F 7.0 °F 50% 30.17 in 10.0 mi SW 5.8 mph - N/A   Clear
5:53 PM 16.0 °F 8.8 °F 6.1 °F 65% 30.22 in 10.0 mi SSE 4.6 mph - N/A   Clear
6:53 PM 12.0 °F 0.5 °F 5.0 °F 73% 30.28 in 10.0 mi NE 8.1 mph - N/A   Clear
7:53 PM 10.9 °F 2.9 °F 5.0 °F 77% 30.27 in 10.0 mi East 4.6 mph - N/A   Clear
8:53 PM 12.0 °F - 5.0 °F 73% 30.24 in 10.0 mi Calm Calm - N/A   Clear
9:53 PM 12.0 °F - 7.0 °F 80% 30.21 in 10.0 mi Calm Calm - N/A   Clear
10:53 PM 12.0 °F 5.9 °F 8.1 °F 84% 30.20 in 10.0 mi SSE 3.5 mph - N/A   Clear
11:53 PM 10.9 °F 4.7 °F 7.0 °F 84% 30.16 in 10.0 mi ENE 3.5 mph - N/A   Clear